Location: Peterborough
(44.3091°N, 78.3197°W)
Time: 07:14:53
(UTC-04:00)

A-11 Canister half - Pass Details

Date: 31 March 2023
Orbit: 1513 x 1686 km, 47.2° (Epoch: 04 June)

Event Time Altitude Azimuth Distance (km) Brightness Sun altitude
Rises 03:19:09 0° 294° (WNW) 4,910 11.5 -34.5°
Enters shadow 03:21:44 - 291° (WNW) 4,128 11.1 -34.2°
Exits shadow 03:37:45 27° 155° (SSE) 2,811 10.1 -32.3°
Drops below altitude 10° 03:41:48 10° 145° (SE) 3,928 11.0 -31.8°
Sets 03:45:02 0° 140° (SE) 4,902 11.6 -31.4°
